This is the latest recevied weather packets stored in our database for station/object KE8DDT-7. If no packets are shown the sender has not sent any weather packets the latest 10 day(s).
| Time | Temp. | Humidity | Pressure | Rain* | Wind** | Luminosity | Snow |
|---|---|---|---|---|---|---|---|
| 1777918465 | 23.33° C | 31% | 993.8 hPa | 0 mm | - | 868 W/m² | - |
| 1777918165 | 23.89° C | 31% | 993.8 hPa | 0 mm | - | 881 W/m² | - |
| 1777917865 | 23.89° C | 30% | 994 hPa | 0 mm | - | 905 W/m² | - |
| 1777917565 | 23.89° C | 30% | 993.9 hPa | 0 mm | - | 921 W/m² | - |
| 1777917265 | 23.89° C | 33% | 994 hPa | 0 mm | - | 914 W/m² | - |
| 1777916965 | 23.89° C | 35% | 994.1 hPa | 0 mm | - | 930 W/m² | - |
| 1777916665 | 23.89° C | 32% | 994 hPa | 0 mm | - | 935 W/m² | - |
| 1777916365 | 23.33° C | 32% | 994.2 hPa | 0 mm | - | 930 W/m² | - |
| 1777916065 | 23.33° C | 31% | 994.3 hPa | 0 mm | - | 933 W/m² | - |
| 1777915765 | 23.33° C | 31% | 994.3 hPa | 0 mm | - | 932 W/m² | - |
| 1777915465 | 23.33° C | 31% | 994.5 hPa | 0 mm | - | 937 W/m² | - |
| 1777915165 | 23.33° C | 31% | 994.6 hPa | 0 mm | - | 940 W/m² | - |
| 1777914865 | 23.33° C | 34% | 994.5 hPa | 0 mm | - | 932 W/m² | - |
| 1777914565 | 23.33° C | 34% | 994.7 hPa | 0 mm | - | 928 W/m² | - |
| 1777913978 | 22.78° C | 35% | 994.8 hPa | 0 mm | - | 933 W/m² | - |
| 1777913678 | 22.78° C | 33% | 994.9 hPa | 0 mm | - | 928 W/m² | - |
| 1777913378 | 22.78° C | 35% | 995 hPa | 0 mm | - | 923 W/m² | - |
| 1777913078 | 22.78° C | 37% | 995 hPa | 0 mm | - | 916 W/m² | - |
| 1777912778 | 22.78° C | 37% | 995 hPa | 0 mm | - | 918 W/m² | - |
| 1777912478 | 22.22° C | 39% | 995.1 hPa | 0 mm | - | 916 W/m² | - |
| 1777912178 | 22.22° C | 43% | 995.2 hPa | 0 mm | - | 914 W/m² | - |
| 1777911878 | 22.22° C | 40% | 995.3 hPa | 0 mm | - | 905 W/m² | - |
| 1777911578 | 22.22° C | 42% | 995.3 hPa | 0 mm | - | 904 W/m² | - |
| 1777911278 | 22.22° C | 42% | 995.4 hPa | 0 mm | - | 900 W/m² | - |
| 1777910871 | 21.67° C | 43% | 995.5 hPa | 0 mm | - | 893 W/m² | - |
* Rain latest hour (hover to see other rain measurements)
** Current wind speed in m/s (hover to see current wind gust speed)